Showing default

FLOCK 4G 21, 62651

Orbit data source: Space-Track

FLOCK 4G 21, 62651 is a payload satellite owned by Planet (US) in SSO that was launched on Tue, 14 Jan 2025 UTC via an FALCON 9 launch vehicle from the Air Force Western Test Range (AFWTR). Payload-class satellites include a variety of spacecraft equipped with specific instruments for various scientific and technological missions. These include communications satellites like Starlink; space stations such as the ISS; scientific satellites like the Hubble; Earth observation satellites from companies like Planet Labs, Umbra, and HawkEye 360; GPS; miniature CubeSats for education and research; and military/defense satellites.

Loading next visibility...
Identifier
62651, 2025-009AU
Orbit
SSO
Country
Flag of USUS
Related business
Manufacturer
Planet
Mission
Operational Commercial Imaging
Bus & Motor
CUBESAT 3U, Unknown motor
Mass
5.7 kg wet, 5.7 kg dry
Launch date (UTC)
2025-01-14 (1 year ago)
Launch vehicle
FALCON 9
Launch site
Air Force Western Test Range (AFWTR)
Object type
Payload
Rocket body
Debris
Shape & HBR
Box + 2 Pan, 1.0 m
Radar Cross Section
0.072 m², Medium (>0.1 m² and < 1m²)

Expand to show TLE details & history
Last TLE update: 7 hours ago

TLE from 7 hours ago
0 FLOCK 4G 21
1 62651U 25009AU  26038.20093161  .00013953  00000-0  51972-3 0  9995
2 62651  97.4080 121.3193 0002546  71.0466 289.1049 15.27573370 59097
Epoch: 2026-02-07T04:49Z
TLE epoch observation values (Epoch: 2026-02-07T04:49:20.491Z)
Latitude
Longitude
-88.34394°
Altitude
485.598 km
Speed
7.623 km/s
True Right ascension
08h 05m 16s
True Declination
0° 00' 00"
Sunlit
Object was in full shadow at epoch
Visualization orbit readout
Latitude
Unknown
Longitude
Unknown
Altitude
Unknown
Speed
Unknown
Apparent Right ascension
Unknown
Apparent Declination
Unknown
Sunlit
N/A
Visualization observer readout
Local Sidereal Time
14:24:08
Azimuth
Unknown
Elevation
Unknown
Doppler factor
Unknown
Orbital elements
Apogee altitude
481.771 km
Perigee altitude
478.279 km
Semi-major axis
6,858.162 km
Eccentricity
0.00025
Inclination
97.408°
RAAN
121.3193°
Arg. of periapsis
71.0466°
True anomaly
289.07733°
Mean anomaly
289.1049°
Eccentric anomaly
289.09111°
Mean motion
3.82148 °/min
Orbital period
94.2 mins
BSTAR
0.00051972
Loading maneuver chart data...
Computing Atmospheric mass density...
Loading historical data...
Loading historical data...
Loading historical data...
Loading historical data...
Loading historical data...
Loading historical data...
Loading historical data...

Documentation

Showing up to 5 results
|